Weather History for Litchfield, MN

Change the Weather History Date:

Tuesday, December 10, 2013

  Actual Average Record
Temperature  
Mean Temperature 6 °F -  
Max Temperature 14 °F 26 °F 50 °F (1990)
Min Temperature -2 °F 9 °F -22 °F (1977)
Degree Days  
Heating Degree Days 59    
Moisture  
Dew Point 1 °F    
Average Humidity 81    
Maximum Humidity 93    
Minimum Humidity 67    
Precipitation  
Precipitation 0.00 in - - ()
Sea Level Pressure  
Sea Level Pressure 29.99 in    
Wind  
Wind Speed 8 mph (West)    
Max Wind Speed 17 mph    
Max Gust Speed 26 mph    
Visibility 9 miles    
Events Snow    
Averages and records for this station are not official NWS values.
T = Trace of Precipitation, MM = Missing Value Source: NWS Daily Summary

Daily Weather History Graph

Daily Weather History Graph

Search for Another Location

Airport:

Trip Planner

Search our weather history database for the weather conditions in past years. The results will help you decide how hot, cold, wet, or windy it might be!

Date:

Astronomy

Dec. 10, 2013 Rise Set
Actual Time 7:45 AM CST 4:36 PM CST
Civil Twilight 7:12 AM CST 5:09 PM CST
Nautical Twilight 6:35 AM CST 5:46 PM CST
Astronomical Twilight 5:59 AM CST 6:22 PM CST
Moon 12:51 PM CST (12/10) 12:49 AM CST (12/10)
Length of Visible Light 9h 57m
Length of Day
8h 50m
Waxing Gibbous, 62% of the Moon is Illuminated
Dec 10
Waxing Gibbous
Dec 17
Full
Dec 25
Last Quarter
Jan 1
New
Jan 7
First Quarter

Hourly Weather History & Observations

Time (CST) Temp. Windchill Dew Point Humidity Pressure Visibility Wind Dir Wind Speed Gust Speed Precip Events Conditions
12:12 AM 5.0 °F -5.6 °F 3.2 °F 92% 29.75 in 3.0 mi South 5.8 mph - N/A Snow Light Snow
12:33 AM 6.8 °F -2.0 °F 3.2 °F 85% 29.74 in 2.5 mi SSE 4.6 mph - N/A Snow Light Snow
12:52 AM 8.6 °F 2.0 °F 5.0 °F 85% 29.72 in 3.0 mi South 3.5 mph - N/A Snow Light Snow
1:13 AM 8.6 °F 0.1 °F 6.8 °F 92% 29.72 in 7.0 mi South 4.6 mph - N/A Snow Light Snow
1:33 AM 8.6 °F 2.0 °F 6.8 °F 92% 29.71 in 4.0 mi SSW 3.5 mph - N/A Snow Light Snow
1:52 AM 10.4 °F - 6.8 °F 85% 29.72 in 3.0 mi Calm Calm - N/A Snow Light Snow
2:13 AM 10.4 °F 4.0 °F 8.6 °F 92% 29.72 in 4.0 mi WSW 3.5 mph - N/A Snow Light Snow
2:32 AM 14.0 °F 2.9 °F 12.2 °F 93% 29.73 in 7.0 mi West 8.1 mph - N/A Snow Light Snow
2:53 AM 14.0 °F -0.2 °F 10.4 °F 86% 29.73 in 5.0 mi West 12.7 mph 19.6 mph N/A   Overcast
3:13 AM 12.2 °F -3.7 °F 10.4 °F 92% 29.75 in 10.0 mi WNW 15.0 mph 20.7 mph N/A   Mostly Cloudy
3:32 AM 12.2 °F -4.3 °F 8.6 °F 85% 29.77 in 10.0 mi WNW 16.1 mph 23.0 mph N/A   Mostly Cloudy
3:53 AM 10.4 °F -6.0 °F 6.8 °F 85% 29.79 in 5.0 mi WNW 15.0 mph 21.9 mph N/A   Overcast
4:12 AM 8.6 °F -9.5 °F 5.0 °F 85% 29.80 in 5.0 mi WNW 17.3 mph 26.5 mph N/A   Mostly Cloudy
4:33 AM 8.6 °F -8.9 °F 3.2 °F 79% 29.82 in 7.0 mi WNW 16.1 mph 26.5 mph N/A   Overcast
4:53 AM 6.8 °F -10.0 °F 3.2 °F 85% 29.84 in 7.0 mi WNW 13.8 mph 24.2 mph N/A   Mostly Cloudy
5:12 AM 5.0 °F -13.6 °F 1.4 °F 85% 29.86 in 7.0 mi WNW 16.1 mph 21.9 mph N/A   Overcast
5:33 AM 3.2 °F -14.6 °F 1.4 °F 92% 29.88 in 10.0 mi WNW 13.8 mph 23.0 mph N/A   Overcast
5:53 AM 3.2 °F -15.9 °F -0.4 °F 85% 29.89 in 10.0 mi WNW 16.1 mph 20.7 mph N/A   Overcast
6:12 AM 1.4 °F -17.6 °F -2.2 °F 85% 29.90 in 10.0 mi WNW 15.0 mph 23.0 mph N/A   Scattered Clouds
6:33 AM 1.4 °F -16.1 °F -2.2 °F 85% 29.91 in 10.0 mi NW 12.7 mph 18.4 mph N/A   Scattered Clouds
6:53 AM 1.4 °F -15.3 °F -4.0 °F 78% 29.94 in 10.0 mi WNW 11.5 mph 21.9 mph N/A   Scattered Clouds
7:13 AM -0.4 °F -17.6 °F -4.0 °F 85% 29.96 in 10.0 mi WNW 11.5 mph - N/A   Scattered Clouds
7:32 AM -0.4 °F -15.7 °F -5.8 °F 78% 29.96 in 10.0 mi West 9.2 mph 16.1 mph N/A   Clear
7:53 AM -2.2 °F -16.8 °F -5.8 °F 85% 29.96 in 10.0 mi West 8.1 mph - N/A   Scattered Clouds
8:12 AM -2.2 °F -18.0 °F -5.8 °F 85% 29.97 in 10.0 mi West 9.2 mph 16.1 mph N/A   Clear
8:33 AM -2.2 °F -16.8 °F -5.8 °F 85% 29.96 in 10.0 mi WNW 8.1 mph - N/A   Scattered Clouds
8:52 AM -2.2 °F -18.0 °F -5.8 °F 85% 29.96 in 10.0 mi WNW 9.2 mph - N/A   Scattered Clouds
9:13 AM -2.2 °F -20.7 °F -5.8 °F 85% 29.97 in 10.0 mi WNW 12.7 mph 17.3 mph N/A   Clear
9:33 AM -0.4 °F -16.7 °F -5.8 °F 78% 29.97 in 10.0 mi WNW 10.4 mph - N/A   Clear
9:53 AM -0.4 °F -15.7 °F -5.8 °F 78% 29.99 in 10.0 mi West 9.2 mph - N/A   Clear
10:13 AM 1.4 °F -13.5 °F -5.8 °F 72% 30.02 in 10.0 mi West 9.2 mph - N/A   Clear
10:33 AM 1.4 °F -15.3 °F -5.8 °F 72% 30.02 in 10.0 mi West 11.5 mph - N/A   Clear
10:53 AM 1.4 °F -16.9 °F -4.0 °F 78% 30.03 in 10.0 mi West 13.8 mph 17.3 mph N/A   Clear
11:13 AM 3.2 °F -14.6 °F -4.0 °F 72% 30.04 in 10.0 mi West 13.8 mph 18.4 mph N/A   Clear
11:33 AM 3.2 °F -14.6 °F -2.2 °F 78% 30.03 in 10.0 mi West 13.8 mph - N/A   Clear
11:53 AM 3.2 °F -13.1 °F -2.2 °F 78% 30.04 in 10.0 mi West 11.5 mph - N/A   Clear
12:13 PM 5.0 °F -8.1 °F -2.2 °F 72% 30.03 in 10.0 mi West 8.1 mph 16.1 mph N/A   Clear
12:33 PM 6.8 °F -6.9 °F -2.2 °F 67% 30.03 in 10.0 mi West 9.2 mph - N/A   Clear
12:52 PM 6.8 °F -8.6 °F -0.4 °F 72% 30.04 in 10.0 mi West 11.5 mph 16.1 mph N/A   Clear
1:13 PM 6.8 °F -6.9 °F -0.4 °F 72% 30.04 in 10.0 mi West 9.2 mph - N/A   Clear
1:33 PM 6.8 °F -5.9 °F -0.4 °F 72% 30.04 in 10.0 mi WSW 8.1 mph - N/A   Scattered Clouds
1:52 PM 6.8 °F -4.8 °F -0.4 °F 72% 30.04 in 10.0 mi WSW 6.9 mph - N/A   Scattered Clouds
2:13 PM 8.6 °F -2.6 °F 1.4 °F 73% 30.03 in 10.0 mi WSW 6.9 mph - N/A   Clear
2:33 PM 8.6 °F 2.0 °F 1.4 °F 73% 30.02 in 10.0 mi WSW 3.5 mph - N/A   Clear
2:52 PM 8.6 °F 0.1 °F 1.4 °F 73% 30.01 in 10.0 mi SW 4.6 mph - N/A   Clear
3:13 PM 8.6 °F -1.3 °F 1.4 °F 73% 30.02 in 10.0 mi WSW 5.8 mph - N/A   Clear
3:32 PM 8.6 °F - 3.2 °F 79% 30.04 in 10.0 mi Calm Calm - N/A   Scattered Clouds
3:53 PM 8.6 °F - 3.2 °F 79% 30.04 in 10.0 mi Calm Calm - N/A   Overcast
4:13 PM 8.6 °F - 3.2 °F 79% 30.04 in 10.0 mi Calm Calm - N/A   Overcast
4:32 PM 8.6 °F - 3.2 °F 79% 30.04 in 10.0 mi Calm Calm - N/A   Overcast
4:53 PM 8.6 °F 2.0 °F 3.2 °F 79% 30.04 in 10.0 mi WSW 3.5 mph - N/A   Overcast
5:13 PM 8.6 °F 0.1 °F 3.2 °F 79% 30.05 in 10.0 mi WSW 4.6 mph - N/A   Overcast
5:32 PM 8.6 °F - 3.2 °F 79% 30.06 in 10.0 mi Calm Calm - N/A   Overcast
5:53 PM 8.6 °F - 3.2 °F 79% 30.06 in 10.0 mi Calm Calm - N/A   Scattered Clouds
6:13 PM 8.6 °F 2.0 °F 3.2 °F 79% 30.07 in 10.0 mi SW 3.5 mph - N/A   Mostly Cloudy
6:32 PM 8.6 °F 2.0 °F 5.0 °F 85% 30.08 in 10.0 mi WSW 3.5 mph - N/A   Overcast
6:53 PM 8.6 °F 2.0 °F 5.0 °F 85% 30.08 in 10.0 mi SW 3.5 mph - N/A   Overcast
7:13 PM 8.6 °F 2.0 °F 6.8 °F 92% 30.09 in 10.0 mi SW 3.5 mph - N/A   Overcast
7:33 PM 10.4 °F 4.0 °F 6.8 °F 85% 30.10 in 10.0 mi SW 3.5 mph - N/A   Overcast
7:53 PM 10.4 °F 0.8 °F 6.8 °F 85% 30.11 in 10.0 mi WSW 5.8 mph - N/A   Overcast
8:13 PM 10.4 °F 0.8 °F 6.8 °F 85% 30.12 in 10.0 mi West 5.8 mph - N/A   Overcast
8:32 PM 12.2 °F -0.2 °F 8.6 °F 85% 30.13 in 10.0 mi WNW 9.2 mph - N/A   Overcast
8:53 PM 12.2 °F -3.7 °F 8.6 °F 85% 30.15 in 10.0 mi NNW 15.0 mph 19.6 mph N/A   Overcast
9:13 PM 10.4 °F -5.4 °F 6.8 °F 85% 30.17 in 10.0 mi NNW 13.8 mph - N/A   Overcast
9:32 PM 8.6 °F -7.7 °F 3.2 °F 79% 30.19 in 10.0 mi NW 13.8 mph 20.7 mph N/A   Scattered Clouds
9:53 PM 6.8 °F -7.8 °F 1.4 °F 79% 30.21 in 10.0 mi NW 10.4 mph - N/A   Scattered Clouds
10:13 PM 5.0 °F -11.6 °F -0.4 °F 78% 30.22 in 10.0 mi NW 12.7 mph 23.0 mph N/A   Scattered Clouds
10:32 PM 3.2 °F -12.2 °F -2.2 °F 78% 30.23 in 10.0 mi NW 10.4 mph - N/A   Clear
10:53 PM 3.2 °F -14.6 °F -2.2 °F 78% 30.25 in 10.0 mi NW 13.8 mph 18.4 mph N/A   Clear
11:13 PM 1.4 °F -17.6 °F -4.0 °F 78% 30.26 in 10.0 mi NW 15.0 mph - N/A   Clear
11:32 PM 1.4 °F -15.3 °F -5.8 °F 72% 30.28 in 10.0 mi NW 11.5 mph 16.1 mph N/A   Clear
11:53 PM -0.4 °F -16.7 °F -5.8 °F 78% 30.29 in 10.0 mi NW 10.4 mph - N/A   Clear